Terminal Aerodrome Forecast
Issued by NWS

Home | Current Version | Previous Version | Text Only | Print | Product List | Glossary On
Versions: 1 2 3 4 5 6 7 8 9 10 11 12 13 14 15 16 17 18 19 20 21 22 23 24 25 26
000
FTUS44 KMAF 050700 AAA
TAFFST
TAF AMD
KFST 050700Z 0507/0606 VRB05KT 6SM BR SCT015 OVC035
     FM050800 VRB05KT 5SM BR SCT008 OVC015
      TEMPO 0508/0512 3SM -RA BR BKN005
     FM051800 28010KT P6SM SCT100=

USA.gov is the U.S. government's official web portal to all federal, state and local government web resources and services.